sat.trackr.live / text

‹ back to catalog

STARLINK-1132

NORAD 45044 · 2020-006A

PAYLOAD ACTIVE UNKNOWN

§ Identity

Operator
Country
US
Launch date
2020-01-29
Launch site
AFETR
Launch vehicle
Mass (kg)
RCS (m²)

Purposes: comms

External: N2YO · Heavens-Above · Gunter

§ Orbital elements

Epoch: 2026-09-12T21:40:26.692608Z

Period
91.56 min
Inclination
53.1462°
Eccentricity
0.0000820
Mean motion
15.72737288 rev/d
Perigee alt
350.5 km
Apogee alt
351.6 km
Semi-major
6,729.2 km
B*
4.0286e-4
RAAN
67.5342°
Arg perigee
214.9705°
Mean anomaly
145.1260°
Rev number
36,610

§ Raw data

STARLINK-11321 45044U 20006A   26255.90308672  .00055185  00000+0  40286-3 0  99962 45044  53.1462  67.5342 0000820 214.9705 145.1260 15.72737288366100

JSON: /api/v1/satellites/45044 · /tle

For live sub-satellite position, see the globe view (requires WebGL).

§ Visibility from observer

Set your observer location to see the next 7 days of passes ≥ 10°. The values pass through the URL so the page stays shareable.

No JS? Fill the form by hand. The geolocation button needs JavaScript.